TITAN 3C TRANSTAGE DEB

基本信息
目录编号:
25000
目录名称:
TITAN 3C TRANSTAGE DEB
国际标识:
1968-081G
轨道中心:
EARTH
物体状态:
在轨
发射日期:
1968-09-26 UTC
轨道信息
数据来源: 国际轨道数据
星历时间: 2026-07-14T04:34:54+0800
半长轴: 41951.404km
偏心率: 0.0112726
轨道倾角: 1.955°
近地点辐角: 288.294°
升交点赤经: 45.492°
平近点角: 325.052°
近地点: 35100.365km
远地点: 36046.169km
周期: 1425.212分钟
每日圈数: 1.010376
详细信息
发射场:
AFETR
轨道高度:
MEO
数据来源:
AOE Integration Group
参考系:
TEME
时间系统:
UTC
历元类型:
SGP4
2D轨道图
3D轨道图
轨道高度分析图
轨道倾角分析图
轨道综合分析图
查看轨道综合分析图